[[{"header":{"parameterUnit":"m.s-1","parameterCategory":1,"la1":30.2991,"la2":30.254,"lo1":-89.0895,"lo2":-89.0444,"dy":0.0017,"dx":0.0017,"nx":28,"ny":28,"refTime":"2025-01-18T03:00:00:Z","depth":0,"parameterNumber":2,"parameterNumberName":"U-component_of_WINDS"},"data":[0,0,0,0,0,0,0,0,0,0,0,0,0,0,0,0,0,0,0,0,0,0,0,0,0,0,0,0,0,0,0,0,0,0,0,0,0,0,0,0,0,0,0,0,0,0,0,0,0,0,0,0,0,0,0,0,0,0,-1.5676,-1.5677,0,-1.5745,-1.5746,-1.5747,-1.5793,-1.5793,-1.5793,-1.5794,-1.5861,-1.5862,-1.5864,0,0,0,0,0,0,0,0,0,0,0,0,0,-1.5579,-1.558,-1.5676,-1.5677,-1.5678,-1.5745,-1.5746,-1.5747,-1.5793,-1.5793,-1.5794,-1.5794,-1.586,-1.5862,-1.5864,0,0,0,0,0,0,0,0,0,0,0,0,0,-1.5632,-1.5581,-1.5676,-1.5709,-1.5713,-1.5745,-1.5746,-1.5747,-1.5793,-1.5793,-1.5794,-1.5794,-1.586,-1.5862,-1.5864,-1.5868,0,0,-1.5871,-1.5872,0,0,0,0,0,0,0,0,-1.5629,-1.5635,-1.5703,-1.5707,-1.5711,-1.5761,-1.5736,-1.5788,-1.5793,-1.5762,-1.5794,-1.5794,-1.5827,-1.5832,-1.5844,-1.5871,-1.5874,-1.5871,-1.5872,-1.5873,-1.5874,0,0,0,0,0,0,0,-1.5625,-1.5632,-1.5703,-1.5704,-1.5709,-1.5718,-1.5727,-1.5746,-1.5791,-1.5765,-1.5768,-1.5776,-1.5829,-1.5841,-1.5846,-1.5875,-1.5871,-1.5873,-1.5874,-1.5875,-1.5906,-1.5905,0,0,0,0,0,0,-1.5617,-1.5629,-1.5701,-1.5705,-1.567,-1.572,-1.5729,-1.5744,-1.5791,-1.5798,-1.5776,-1.5778,-1.5837,-1.5843,-1.5848,-1.5854,-1.5873,-1.5875,-1.5877,-1.5906,-1.5906,-1.5905,0,0,0,0,0,0,-1.5614,-1.5623,-1.5698,-1.5668,-1.5679,-1.5721,-1.5738,-1.5745,-1.5758,-1.5799,-1.5807,-1.578,-1.5838,-1.5845,-1.5862,-1.5857,-1.5876,-1.5878,-1.5907,-1.5906,-1.5905,-1.5866,0,0,0,0,0,0,-1.5611,-1.5622,-1.5625,-1.5668,-1.568,-1.5713,-1.5738,-1.5746,-1.5762,-1.5766,-1.5805,-1.5812,-1.5839,-1.5859,-1.5864,-1.586,-1.588,-1.5908,-1.5907,-1.5906,-1.5868,-1.5864,-1.5861,0,0,0,0,0,-1.5608,-1.5611,-1.5625,-1.5633,-1.5686,-1.5713,-1.5719,-1.5751,-1.5761,-1.5764,-1.579,-1.5811,-1.5857,-1.586,-1.5867,-1.5863,-1.5908,-1.5907,-1.5906,-1.587,-1.5865,-1.5861,0,0,0,0,0,0,-1.5566,-1.5618,-1.5633,-1.5651,-1.5677,-1.572,-1.5725,-1.5745,-1.5768,-1.577,-1.5807,-1.5816,-1.5828,-1.5848,-1.5851,-1.5868,-1.5885,-1.5885,-1.5855,-1.5851,-1.5847,-1.5842,-1.5882,0,0,0,0,0,-1.5559,-1.5578,-1.5622,-1.5633,-1.5645,-1.5682,-1.5696,-1.5717,-1.5745,-1.5756,-1.5784,-1.5809,-1.5829,-1.5841,-1.5862,-1.5871,-1.5879,-1.5872,-1.5868,-1.5865,-1.5864,-1.5868,-1.5864,-1.5901,-1.5901,-1.5901,0,0,-1.5545,-1.5575,-1.5585,-1.5625,-1.5648,-1.5665,-1.5692,-1.5709,-1.5722,-1.5759,-1.5777,-1.5797,-1.5827,-1.584,-1.5847,-1.5857,-1.5856,-1.5863,-1.586,-1.5862,-1.5866,-1.5863,-1.5859,-1.5901,-1.5901,-1.5901,0,0,-1.5527,-1.5553,-1.5564,-1.5586,-1.562,-1.5644,-1.5646,-1.5686,-1.5701,-1.572,-1.5747,-1.5761,-1.5795,-1.5815,-1.583,-1.5816,-1.5835,-1.5821,-1.5802,-1.5805,-1.5802,-1.5799,-1.5792,-1.5789,-1.5821,-1.5821,-1.582,0,-1.5504,-1.5533,-1.5567,-1.5582,-1.5598,-1.5632,-1.5642,-1.5661,-1.57,-1.5709,-1.5719,-1.5761,-1.5784,-1.58,-1.5796,-1.5808,-1.581,-1.5817,-1.58,-1.5798,-1.5796,-1.5789,-1.5787,-1.5818,-1.5819,-1.5819,-1.5819,0,-1.5502,-1.5521,-1.5525,-1.5562,-1.5578,-1.559,-1.5624,-1.5636,-1.5655,-1.5678,-1.5695,-1.5723,-1.5749,-1.5754,-1.5774,-1.5773,-1.5777,-1.5793,-1.581,-1.579,-1.5784,-1.5782,-1.5816,-1.5816,-1.5817,-1.5817,0,0,-1.5462,-1.5515,-1.5516,-1.5531,-1.557,-1.5584,-1.5597,-1.5622,-1.5631,-1.5655,-1.5665,-1.5692,-1.5706,-1.5722,-1.5744,-1.5746,-1.573,-1.5762,-1.5763,-1.5753,-1.5728,-1.5715,-1.5711,-1.5744,-1.5743,-1.5743,-1.5725,0,-1.5449,-1.5475,-1.5504,-1.5519,-1.5535,-1.5566,-1.5577,-1.56,-1.5621,-1.5636,-1.5658,-1.5676,-1.5694,-1.5704,-1.5708,-1.5732,-1.5726,-1.5733,-1.5751,-1.5751,-1.5741,-1.5709,-1.5696,-1.5677,-1.5723,-1.5723,-1.5722,0,-1.5438,-1.546,-1.5477,-1.5511,-1.5519,-1.5528,-1.5552,-1.5567,-1.5593,-1.5607,-1.5624,-1.5646,-1.5659,-1.5674,-1.5691,-1.5695,-1.5704,-1.5716,-1.5716,-1.5718,-1.5735,-1.5708,-1.5672,-1.5668,-1.572,-1.572,-1.572,0,-1.5405,-1.5439,-1.5452,-1.5465,-1.5506,-1.5511,-1.5527,-1.5554,-1.5566,-1.5587,-1.5595,-1.5616,-1.5628,-1.5643,-1.567,-1.5679,-1.5682,-1.5701,-1.5692,-1.5691,-1.5691,-1.569,-1.5654,-1.5699,-1.5699,-1.5699,-1.5699,0,-1.5387,-1.5395,-1.5437,-1.5446,-1.5454,-1.5487,-1.5494,-1.5514,-1.5536,-1.5547,-1.5576,-1.5585,-1.562,-1.5633,-1.5654,-1.5662,-1.5668,-1.5678,-1.5683,-1.5675,-1.5673,-1.568,-1.5682,-1.5698,-1.5698,-1.5698,-1.5699,0,-1.5351,-1.5381,-1.5397,-1.5433,-1.5442,-1.5447,-1.5477,-1.5485,-1.5506,-1.5519,-1.5524,-1.5557,-1.5573,-1.5601,-1.5626,-1.5639,-1.5643,-1.5653,-1.5634,-1.5637,-1.5626,-1.5626,-1.5592,-1.5588,-1.5637,-1.5636,-1.5636,0,-1.5338,-1.5344,-1.5381,-1.539,-1.5406,-1.5421,-1.5433,-1.5464,-1.5475,-1.5503,-1.5507,-1.5525,-1.5541,-1.5565,-1.559,-1.5608,-1.5617,-1.5604,-1.562,-1.561,-1.5615,-1.5613,-1.5613,-1.56,-1.5599,-1.5599,-1.5598,0,-1.5309,-1.5322,-1.534,-1.536,-1.5374,-1.5392,-1.5412,-1.5417,-1.5452,-1.5463,-1.5479,-1.5492,-1.5515,-1.5532,-1.5553,-1.5569,-1.5588,-1.5593,-1.5592,-1.5582,-1.557,-1.5574,-1.5622,-1.5594,-1.5594,-1.5594,-1.5595,-1.5595,-1.5283,-1.5289,-1.5315,-1.5332,-1.5349,-1.5366,-1.5374,-1.5395,-1.541,-1.5432,-1.5449,-1.5463,-1.5486,-1.5516,-1.553,-1.554,-1.555,-1.5548,-1.5548,-1.5546,-1.5542,-1.5569,-1.5544,-1.5545,-1.5545,-1.5545,-1.5545,0,-1.5255,-1.5272,-1.5287,-1.5312,-1.5325,-1.5342,-1.5364,-1.5372,-1.5385,-1.5404,-1.5419,-1.5436,-1.5452,-1.5477,-1.5494,-1.5497,-1.5506,-1.5501,-1.55,-1.5502,-1.5534,-1.5532,-1.5493,-1.5493,-1.5493,-1.5493,-1.5493,-1.5493,-1.5241,-1.5252,-1.5267,-1.5285,-1.5302,-1.5316,-1.5326,-1.5341,-1.5356,-1.5374,-1.5387,-1.5403,-1.5424,-1.5443,-1.5457,-1.5463,-1.5467,-1.5458,-1.5467,-1.5496,-1.5501,-1.5505,-1.5504,-1.5459,-1.5459,-1.5435,-1.5435,-1.5435]},{"header":{"parameterUnit":"m.s-1","parameterCategory":1,"la1":30.2991,"la2":30.254,"lo1":-89.0895,"lo2":-89.0444,"dy":0.0017,"dx":0.0017,"nx":28,"ny":28,"refTime":"2025-01-18T03:00:00:Z","depth":0,"parameterNumber":3,"parameterNumberName":"V-component_of_WINDS"},"data":[0,0,0,0,0,0,0,0,0,0,0,0,0,0,0,0,0,0,0,0,0,0,0,0,0,0,0,0,0,0,0,0,0,0,0,0,0,0,0,0,0,0,0,0,0,0,0,0,0,0,0,0,0,0,0,0,0,0,3.8532,3.8533,0,3.8573,3.8574,3.8574,3.8561,3.856,3.8559,3.8558,3.8595,3.8597,3.8599,0,0,0,0,0,0,0,0,0,0,0,0,0,3.8438,3.844,3.8532,3.8533,3.8533,3.8573,3.8574,3.8574,3.8561,3.856,3.8559,3.8558,3.8595,3.8597,3.8599,0,0,0,0,0,0,0,0,0,0,0,0,0,3.8479,3.844,3.8532,3.8531,3.8532,3.8573,3.8574,3.8575,3.8561,3.856,3.8558,3.8557,3.8594,3.8597,3.8599,3.8642,0,0,3.8608,3.8609,0,0,0,0,0,0,0,0,3.8477,3.8482,3.8531,3.8532,3.8532,3.8561,3.8554,3.8597,3.8561,3.855,3.8558,3.8556,3.8585,3.8588,3.8598,3.8644,3.8646,3.8608,3.8609,3.8611,3.8611,0,0,0,0,0,0,0,3.8474,3.848,3.8548,3.8532,3.8532,3.8528,3.8532,3.8562,3.8574,3.8551,3.855,3.8555,3.8584,3.8596,3.8599,3.8646,3.8608,3.861,3.8612,3.8613,3.873,3.8732,0,0,0,0,0,0,3.8471,3.8478,3.8547,3.855,3.8501,3.8531,3.8535,3.8553,3.8574,3.8576,3.8556,3.8554,3.8592,3.8596,3.86,3.8653,3.8611,3.8613,3.8615,3.8729,3.8731,3.8732,0,0,0,0,0,0,3.8469,3.8478,3.8545,3.8514,3.8522,3.8534,3.8553,3.8554,3.8566,3.8578,3.8579,3.8566,3.8591,3.8597,3.8633,3.8654,3.8614,3.8617,3.8727,3.8729,3.8731,3.8758,0,0,0,0,0,0,3.8467,3.8477,3.8494,3.8514,3.8524,3.8578,3.8554,3.8556,3.8571,3.8569,3.8587,3.8589,3.859,3.8629,3.8635,3.8657,3.8619,3.8725,3.8728,3.8731,3.8756,3.8761,3.8766,0,0,0,0,0,3.8463,3.8499,3.8495,3.8504,3.8546,3.858,3.8585,3.8587,3.8573,3.859,3.8598,3.8588,3.8651,3.8632,3.864,3.8663,3.8724,3.8727,3.873,3.8753,3.876,3.8766,0,0,0,0,0,0,3.8479,3.8501,3.8498,3.8541,3.8559,3.8577,3.8599,3.8594,3.8615,3.8612,3.8612,3.8616,3.8654,3.8661,3.8641,3.8706,3.8685,3.869,3.87,3.8706,3.8711,3.8709,3.8621,0,0,0,0,0,3.8488,3.8515,3.8532,3.8569,3.8578,3.8587,3.8601,3.8602,3.8619,3.8626,3.8637,3.8653,3.8676,3.8692,3.8714,3.8756,3.876,3.8776,3.8781,3.8785,3.879,3.8814,3.8821,3.8743,3.8743,3.8743,0,0,3.8506,3.8521,3.8538,3.8572,3.8586,3.8613,3.8593,3.8622,3.8642,3.863,3.8666,3.8674,3.8692,3.8732,3.875,3.874,3.8812,3.879,3.8793,3.8795,3.8818,3.8825,3.8832,3.8745,3.8745,3.8745,0,0,3.8552,3.8567,3.86,3.8614,3.8636,3.8642,3.865,3.867,3.8675,3.8711,3.8704,3.8726,3.8766,3.878,3.8792,3.8845,3.8837,3.8852,3.8879,3.8903,3.8909,3.8914,3.8934,3.8941,3.8856,3.8856,3.8856,0,3.8571,3.8613,3.8616,3.8647,3.8662,3.8655,3.8688,3.8701,3.8728,3.8739,3.8727,3.8778,3.8789,3.8833,3.8847,3.8856,3.8865,3.885,3.8908,3.8914,3.8919,3.8937,3.8945,3.8858,3.8858,3.8857,3.8857,0,3.8636,3.8665,3.8688,3.8718,3.8735,3.8766,3.8774,3.8791,3.879,3.8797,3.8833,3.8847,3.8873,3.8883,3.8881,3.8926,3.8919,3.8908,3.8887,3.8928,3.8945,3.8953,3.886,3.886,3.8859,3.8859,0,0,3.8693,3.8725,3.8734,3.8747,3.8771,3.8793,3.8824,3.885,3.8866,3.8884,3.891,3.8945,3.8935,3.8948,3.8948,3.8969,3.9011,3.8955,3.8955,3.8965,3.9062,3.9072,3.908,3.9006,3.9007,3.9008,3.9061,0,3.8742,3.8799,3.8803,3.8854,3.8881,3.8874,3.8901,3.8918,3.8925,3.8948,3.8955,3.8981,3.8965,3.8974,3.8994,3.9002,3.903,3.8998,3.9029,3.903,3.9026,3.9089,3.9098,3.9148,3.9068,3.9069,3.907,0,3.8808,3.8831,3.8885,3.8907,3.8918,3.8942,3.8968,3.899,3.9009,3.9012,3.9029,3.9026,3.9056,3.9034,3.9076,3.9054,3.9067,3.9073,3.9075,3.9078,3.9053,3.9095,3.9163,3.9171,3.9081,3.908,3.9079,0,3.8846,3.889,3.8929,3.894,3.8966,3.8983,3.8995,3.9013,3.9029,3.905,3.906,3.9084,3.9097,3.9115,3.9119,3.9102,3.9161,3.9139,3.9165,3.9165,3.9178,3.9177,3.925,3.9185,3.9185,3.9185,3.9185,0,3.8901,3.8934,3.8946,3.897,3.9007,3.9011,3.9047,3.9057,3.9073,3.9097,3.9092,3.9115,3.9118,3.9141,3.9144,3.9179,3.9184,3.9188,3.9188,3.9189,3.9188,3.9197,3.9194,3.9187,3.9186,3.9186,3.9186,0,3.8949,3.8959,3.9001,3.9023,3.9029,3.9055,3.9073,3.9095,3.9102,3.9133,3.9141,3.9151,3.9178,3.9184,3.9215,3.9217,3.9259,3.9255,3.9253,3.9253,3.9279,3.9277,3.9361,3.9372,3.9299,3.93,3.93,0,3.8985,3.9011,3.9036,3.9053,3.9066,3.9093,3.911,3.9115,3.9133,3.9157,3.9176,3.9203,3.9225,3.9269,3.9278,3.9302,3.93,3.9328,3.9303,3.9303,3.9301,3.93,3.9303,3.9333,3.9333,3.9334,3.9334,0,3.9046,3.905,3.9076,3.9104,3.9125,3.9147,3.9167,3.9181,3.9188,3.9208,3.9237,3.9254,3.9287,3.9314,3.9339,3.9348,3.9343,3.9342,3.935,3.9351,3.9349,3.9351,3.9267,3.934,3.934,3.9339,3.9339,3.9339,3.909,3.9113,3.9135,3.9164,3.9181,3.92,3.9223,3.9233,3.9258,3.9287,3.9288,3.9319,3.9338,3.937,3.9382,3.9406,3.9397,3.9407,3.941,3.9413,3.9416,3.9345,3.941,3.941,3.941,3.9409,3.9409,0,3.9152,3.9167,3.9193,3.9224,3.9246,3.9241,3.9263,3.9282,3.9311,3.9329,3.9352,3.9385,3.9411,3.9423,3.9449,3.9466,3.9464,3.9473,3.9472,3.9474,3.9422,3.9413,3.9474,3.9474,3.9474,3.9474,3.9474,3.9474,3.9188,3.9227,3.9234,3.9281,3.9294,3.9327,3.9341,3.9358,3.9373,3.9412,3.9434,3.9443,3.9458,3.9485,3.9509,3.9512,3.9521,3.9532,3.9533,3.9484,3.9478,3.9471,3.9464,3.9534,3.9534,3.9583,3.9584,3.9584]}]]